Theta_e
354 354 352 353 353 353 353 353 354 355 355 353 352 350 350 349 346 343 343 344 345 347 348 349 350 351 350 350 350 350 351 352 352 353 353 353 354 353 353 353 353 354 355 354 353 351 348 347 349 349 350 352 351 350 352 351 350 351 352 353 353 353 351 351 350 349 349 347 346 346 348 348 348 348 348 347 347 347 348 349 347 346 348 348 349
354 353 353 353 353 354 353 353 353 353 353 352 351 350 350 348 345 343 344 344 345 346 348 348 349 350 350 350 350 350 350 351 352 353 353 353 353 353 354 354 354 354 355 354 353 352 348 349 351 349 350 352 351 351 352 351 350 351 352 352 352 352 352 351 350 349 345 343 345 348 349 349 349 348 347 347 347 347 348 350 348 347 348 348 348
353 354 354 354 354 354 353 352 352 353 352 351 350 350 349 346 344 343 344 344 345 346 347 349 349 349 350 350 349 350 350 351 351 352 352 351 352 352 353 354 353 353 354 354 353 352 348 349 350 349 351 352 351 351 351 351 351 351 353 352 353 353 352 351 350 346 341 342 345 347 346 345 346 347 348 347 347 349 350 350 349 348 349 348 348
354 354 354 354 354 354 354 353 353 353 351 348 349 350 347 344 343 343 344 345 347 347 348 349 348 348 350 350 350 350 350 351 351 352 351 351 352 352 353 353 353 353 353 352 353 352 349 349 349 349 352 352 351 350 350 350 351 351 353 352 353 352 352 351 348 346 345 347 348 347 345 344 346 347 346 346 348 350 350 349 349 349 348 349 348
354 354 354 354 353 353 353 353 352 351 349 348 348 347 344 343 344 344 345 346 347 347 348 348 348 349 350 350 349 350 350 351 352 351 351 352 353 353 352 352 353 354 353 352 352 352 351 351 349 349 352 351 350 350 350 350 351 352 353 352 352 352 352 351 350 350 349 349 349 349 349 349 349 349 348 349 350 350 348 347 348 348 348 349 349
354 354 354 353 353 353 351 350 349 349 348 347 346 344 344 345 346 347 348 348 348 348 348 349 350 351 350 349 349 350 351 352 352 351 351 352 352 352 352 352 353 354 353 351 352 352 351 351 349 349 351 351 350 350 350 350 351 352 352 351 352 351 352 352 351 351 349 348 348 349 349 350 350 350 350 349 349 348 347 347 348 348 348 348 348
354 354 354 354 353 351 349 348 348 348 346 345 344 344 346 347 348 349 349 349 349 350 350 350 351 351 351 350 350 350 351 351 351 351 352 351 352 353 353 353 352 353 353 351 352 351 350 350 349 348 350 351 350 350 349 349 351 352 352 351 350 349 350 351 352 351 349 349 348 348 349 350 350 351 350 349 348 349 348 348 349 348 348 348 347
354 353 354 353 351 349 348 348 347 345 345 347 346 346 348 349 349 350 350 349 350 350 351 352 351 352 352 351 351 351 350 351 351 352 351 352 352 352 352 353 352 353 353 351 352 352 350 350 349 347 349 351 350 349 348 349 351 350 351 350 348 346 348 350 352 352 349 348 347 348 349 349 349 350 350 349 349 349 349 349 350 348 348 348 348
354 354 353 351 348 347 346 346 345 344 347 348 347 348 349 349 350 350 350 350 351 352 352 353 352 352 352 352 352 352 351 352 352 351 351 351 352 352 352 352 353 353 353 352 352 351 349 349 348 347 349 351 351 349 348 348 349 347 347 348 348 348 348 350 352 351 349 347 347 348 348 349 348 349 350 349 349 349 350 350 349 348 348 348 348
355 354 352 348 345 345 345 344 343 344 347 347 347 349 349 349 350 351 351 351 352 352 353 352 353 352 352 352 352 352 352 352 352 350 350 351 351 352 352 352 352 352 352 352 351 350 349 348 347 347 349 351 350 349 347 346 347 346 346 347 348 349 348 349 351 350 350 348 347 347 348 348 349 349 349 348 348 348 349 349 349 348 348 347 347
354 353 352 347 345 344 344 343 343 346 346 347 348 349 349 350 351 351 350 351 352 352 353 353 353 353 352 352 352 352 352 351 351 350 350 351 350 350 352 352 352 351 352 351 351 350 349 349 348 348 349 350 349 347 345 345 346 347 347 347 347 346 347 348 348 349 349 348 347 348 349 348 348 349 348 346 345 344 345 347 348 348 348 346 346
353 354 352 347 345 345 344 344 344 345 345 347 349 350 351 351 350 350 350 350 352 353 353 352 352 352 353 352 352 351 351 351 350 350 351 351 351 351 352 352 352 351 351 352 352 350 349 350 349 349 350 350 349 346 344 345 347 347 347 348 347 345 346 348 349 349 348 347 347 349 349 348 348 348 346 345 343 342 342 344 345 347 348 347 346
353 353 352 348 346 344 344 343 343 343 345 348 350 352 352 351 350 350 350 351 352 353 353 353 353 353 353 352 352 352 350 351 351 351 352 351 351 352 352 352 352 351 350 351 352 351 350 349 349 349 349 349 348 345 345 346 347 347 347 347 347 346 347 349 350 350 349 348 348 348 348 348 347 347 346 345 344 343 342 343 345 346 347 346 346
354 353 353 350 345 342 343 343 343 344 347 350 350 352 351 350 350 351 352 352 353 353 353 353 353 353 352 352 352 351 350 350 350 351 350 350 351 352 352 352 352 351 350 351 351 351 351 350 350 348 348 348 347 346 346 346 346 347 348 347 347 348 348 348 349 350 349 348 348 347 346 346 346 347 348 347 345 344 343 343 344 346 346 346 346
354 353 353 350 345 341 343 343 345 348 351 352 352 352 351 350 350 352 352 352 353 353 353 353 353 353 352 351 352 351 350 350 350 350 349 350 351 352 352 351 350 350 351 351 351 350 350 351 350 349 349 349 348 347 345 344 346 348 349 347 347 348 348 348 350 349 348 348 348 345 344 345 346 346 347 347 345 344 343 343 344 346 346 346 346
353 352 351 350 348 345 344 344 346 350 353 354 353 353 351 349 350 352 353 352 353 353 353 353 353 352 351 351 351 350 349 349 349 349 349 350 351 352 351 350 350 349 350 350 350 350 350 350 349 348 348 348 347 345 343 345 346 347 348 348 348 348 348 349 350 349 347 349 348 345 344 345 345 345 345 346 345 344 343 343 343 344 345 345 343
352 351 350 350 350 349 348 346 346 350 353 353 353 353 352 349 349 352 352 352 352 353 352 353 353 352 351 350 350 350 350 349 349 349 349 350 351 352 352 351 351 350 350 350 350 350 349 349 347 346 346 346 345 343 343 345 346 346 347 347 348 348 348 349 349 348 348 350 350 346 344 345 345 345 345 345 345 344 343 343 343 344 344 343 342
352 350 349 350 351 352 352 348 347 352 353 352 353 352 352 350 350 352 352 352 352 353 353 352 352 352 350 349 351 352 352 350 349 350 349 349 351 352 352 351 351 351 351 350 350 350 348 345 344 344 346 344 342 342 342 344 345 345 346 347 348 347 347 349 349 348 349 349 349 346 344 345 345 345 346 345 345 345 343 343 343 343 344 343 342
352 350 349 350 351 352 352 351 352 354 353 352 353 350 350 352 351 351 352 351 352 353 353 352 352 352 350 350 352 353 352 351 349 349 348 349 351 352 351 351 350 350 351 350 350 350 348 344 342 343 343 342 341 342 342 344 345 345 344 346 348 347 347 348 348 348 349 349 345 343 344 345 345 345 345 345 345 345 344 344 343 342 343 342 342
350 350 350 350 351 351 352 353 354 354 354 353 351 349 350 352 351 351 351 350 351 353 353 352 352 351 351 351 353 353 353 351 349 349 349 349 350 351 351 350 350 350 350 350 349 348 347 344 342 341 341 340 341 341 343 344 344 344 344 347 348 347 347 348 349 348 349 348 342 342 344 345 345 345 345 346 345 345 345 344 343 342 341 342 342
351 351 352 352 352 352 353 353 353 354 354 353 351 350 351 353 352 351 351 351 352 353 353 352 351 352 352 352 353 354 353 352 351 350 349 349 350 351 350 349 350 350 350 348 346 344 343 343 342 342 341 340 340 341 344 345 346 347 347 348 348 347 346 348 349 349 349 345 342 343 344 344 345 345 346 345 345 346 345 344 343 343 342 342 342
353 354 354 353 354 355 354 353 353 354 354 353 352 350 351 352 352 351 351 352 352 353 353 352 351 352 352 352 354 354 353 352 351 351 350 350 350 350 348 347 348 348 347 345 343 341 340 340 340 341 340 339 339 342 345 346 348 349 349 349 349 348 347 349 350 350 349 344 342 344 344 344 345 345 345 346 346 346 345 344 344 344 344 343 342
355 355 355 355 356 356 354 353 353 354 354 354 353 351 352 352 352 352 351 352 352 353 353 352 350 350 352 352 353 353 353 351 350 351 351 350 350 349 348 346 346 345 343 343 341 339 338 338 339 340 340 341 341 343 345 347 348 348 349 350 349 348 348 349 349 350 348 344 343 345 344 345 345 345 346 346 346 345 344 344 344 345 345 344 343
354 354 355 355 355 355 354 353 353 354 355 355 354 353 352 353 353 352 353 353 352 352 353 352 350 351 352 351 352 353 351 349 349 351 351 350 351 350 348 346 345 344 343 343 341 340 340 340 342 344 345 347 346 345 346 347 347 347 348 349 348 348 348 349 349 350 348 344 344 345 345 345 345 346 346 346 345 344 344 345 345 346 345 344 344
354 354 354 355 354 354 353 353 353 354 355 355 355 354 353 352 353 352 353 352 350 351 352 353 353 352 351 350 352 353 350 348 349 349 349 349 351 351 349 347 347 347 346 345 344 344 343 344 347 348 348 348 347 346 346 347 346 345 345 347 347 347 348 348 349 350 347 344 344 344 345 345 346 346 345 345 345 345 346 346 346 346 345 345 344
354 355 355 355 355 354 353 352 353 355 356 354 353 352 351 350 351 351 351 351 351 351 352 353 354 353 351 349 350 350 348 347 347 347 345 346 350 352 350 350 350 350 349 348 346 346 347 348 348 349 349 349 347 344 345 344 345 345 345 345 345 345 347 348 349 349 344 341 343 344 345 345 345 345 345 345 345 345 346 347 347 346 345 345 344
354 356 355 354 354 354 352 353 353 353 354 353 351 350 350 349 349 350 351 352 353 352 352 353 353 352 350 349 348 348 349 347 347 346 345 348 351 351 350 350 350 349 348 348 348 349 350 350 351 352 351 350 346 342 342 342 343 345 345 345 344 345 347 347 349 349 342 339 341 342 343 344 343 344 344 345 347 347 347 347 346 345 346 346 345
353 354 354 353 353 353 351 353 353 351 352 353 350 350 350 350 350 350 351 352 352 352 351 352 353 352 350 349 349 349 351 349 349 349 348 349 350 349 349 349 349 349 348 349 349 350 351 351 354 354 350 347 345 343 343 343 343 345 344 344 344 345 347 347 348 347 339 335 339 339 340 341 341 342 343 345 348 348 347 346 345 345 345 345 345
353 352 352 352 351 351 352 353 354 352 353 354 350 351 351 350 351 351 351 352 351 351 350 353 353 351 350 349 348 349 350 349 349 349 348 348 348 348 348 348 348 349 349 349 350 351 351 352 353 351 346 345 345 344 344 343 344 344 345 344 345 345 347 348 348 347 341 335 335 337 338 339 339 340 342 345 347 347 346 344 344 345 344 343 342
351 351 350 351 350 350 352 353 354 353 353 354 351 351 350 350 351 350 351 352 350 350 350 353 353 351 350 348 347 348 348 348 347 347 348 348 348 348 348 348 349 349 348 349 350 350 350 352 352 349 347 347 347 346 345 345 345 345 345 345 345 346 347 348 349 349 348 340 333 334 335 335 336 337 340 343 344 344 343 344 345 345 345 343 343
350 350 349 349 349 350 353 353 354 355 353 353 352 352 351 351 351 349 351 351 349 350 350 350 351 351 350 348 347 348 347 348 347 347 349 348 347 348 348 349 349 349 349 349 350 351 351 352 350 347 347 348 348 347 346 346 347 346 346 346 345 347 347 348 348 349 349 345 337 335 336 335 335 336 338 340 341 342 343 344 345 346 345 345 346
349 349 348 348 349 350 352 353 354 355 354 354 354 353 352 352 352 350 352 351 350 350 349 349 352 351 350 351 351 349 347 347 347 348 348 348 347 348 349 350 349 349 350 350 352 353 355 354 351 349 349 349 348 347 346 346 347 347 346 346 346 347 346 346 346 347 350 350 347 342 339 338 338 339 339 339 340 341 343 343 343 344 344 344 345
348 347 347 347 348 350 352 352 354 355 355 355 355 355 354 353 352 351 351 351 351 350 351 351 353 353 352 353 352 351 350 348 348 348 348 349 348 348 351 351 350 350 351 351 353 354 355 354 351 350 350 350 349 347 347 347 347 347 347 348 348 348 347 346 344 345 349 350 351 349 345 343 341 339 339 340 341 342 342 343 343 343 343 343 343
346 346 346 347 348 350 351 352 355 356 355 354 355 355 354 353 351 351 350 350 351 351 352 353 354 354 354 354 354 354 353 349 348 349 350 350 349 349 351 351 351 351 352 351 351 353 352 352 350 350 350 349 349 348 348 347 347 346 346 347 348 348 347 345 345 345 346 348 350 352 351 350 347 342 340 339 339 340 340 340 341 342 341 341 341
345 346 346 347 348 349 350 351 355 356 355 354 354 353 352 351 350 350 350 350 350 351 353 353 353 354 355 356 356 356 356 354 353 351 350 351 351 351 351 353 353 353 353 352 351 352 351 351 350 350 350 348 348 348 347 347 347 346 346 347 347 347 347 346 346 346 346 347 348 350 351 352 351 348 346 343 339 336 337 337 337 338 337 337 337
344 344 346 347 348 349 349 351 354 355 354 354 354 352 351 351 350 351 351 350 349 350 350 350 351 353 355 356 356 357 357 357 358 354 351 352 353 354 353 354 354 355 355 353 353 353 352 352 351 351 351 349 349 349 348 347 346 347 347 348 348 348 348 347 346 346 346 347 347 348 350 350 350 350 349 348 343 337 335 334 335 335 335 335 334
344 344 346 348 348 348 348 350 352 354 354 354 353 352 351 351 351 351 351 350 349 348 348 349 350 352 355 357 357 357 356 357 358 354 353 354 354 355 354 354 354 355 355 353 353 353 352 353 351 352 353 350 349 350 348 347 347 347 346 347 349 348 348 348 347 346 346 347 346 347 347 347 349 349 350 352 349 345 340 337 337 333 331 333 332
344 345 346 347 347 348 348 349 352 353 355 355 354 352 352 351 351 352 352 351 349 349 349 350 352 354 356 358 358 357 357 358 358 356 354 355 355 355 355 355 354 355 356 355 355 353 352 353 351 353 354 351 349 349 348 348 346 346 346 347 348 348 347 347 346 347 346 345 345 345 345 345 347 348 350 352 350 350 348 347 348 342 333 330 328
345 346 347 347 346 347 348 349 351 353 355 356 355 354 354 352 351 352 353 352 351 351 353 353 354 356 358 359 359 358 356 357 359 358 355 355 356 356 358 358 355 355 355 356 356 356 355 354 353 353 354 352 351 348 348 347 346 346 346 346 347 347 347 347 347 346 345 343 343 344 344 345 346 344 346 348 349 351 349 349 352 351 346 336 332
345 346 346 347 346 346 349 349 351 354 356 356 355 355 354 353 352 352 354 354 353 353 354 354 355 357 358 359 359 359 357 355 357 357 354 356 357 357 358 358 357 356 355 355 356 357 357 356 355 354 353 352 351 349 348 347 346 346 345 346 347 346 346 346 345 344 342 342 344 345 345 345 345 343 343 345 348 348 346 348 352 354 354 346 345
345 346 347 348 346 347 350 350 351 354 356 356 355 354 354 353 352 353 354 355 354 354 354 354 356 358 357 359 360 359 358 357 358 357 354 357 358 358 359 357 358 358 356 356 356 357 357 356 355 354 354 354 352 349 348 347 345 346 347 346 344 344 345 346 345 342 341 342 344 344 343 343 344 344 344 344 346 347 346 350 352 353 353 350 352
345 347 348 348 346 348 351 351 351 354 355 356 355 353 353 353 353 352 353 355 355 354 355 354 356 358 358 359 360 359 359 359 359 356 356 359 358 358 359 358 358 359 358 357 357 358 357 356 356 354 354 356 354 349 348 350 348 346 346 346 347 346 343 344 344 343 342 341 342 343 342 343 343 342 341 341 344 346 347 350 352 352 351 351 354
345 347 347 349 348 349 352 351 352 353 354 354 354 353 353 353 352 351 352 354 355 355 355 354 356 359 359 359 359 359 359 359 358 354 355 357 356 357 359 359 358 358 359 359 359 359 357 357 358 356 354 354 352 349 350 351 348 344 348 353 356 353 350 348 345 342 343 341 340 342 343 342 342 341 342 344 344 346 348 349 348 349 350 351 355
345 347 347 350 349 351 353 352 352 353 354 353 354 354 352 352 352 352 353 355 356 355 355 355 356 357 358 359 359 358 359 360 358 356 358 358 357 358 359 359 358 357 359 360 359 358 356 356 357 356 356 354 351 349 349 348 347 348 357 360 355 357 363 356 347 343 343 343 341 340 343 342 340 343 345 346 346 344 346 346 345 346 350 352 353
346 347 348 349 350 353 353 352 353 353 353 354 354 354 353 353 354 353 353 356 355 355 356 356 356 357 357 359 360 359 358 360 358 358 360 359 358 359 359 359 358 357 358 359 359 357 357 356 355 356 355 355 355 351 349 349 348 350 357 361 359 367 368 353 349 353 345 342 341 337 341 342 340 344 345 344 344 343 345 346 345 347 350 352 352
346 347 348 348 350 354 354 353 353 353 354 354 354 355 354 355 357 355 353 355 357 356 356 356 356 357 356 357 359 358 358 358 358 358 358 357 359 360 360 360 359 359 358 358 357 356 356 354 354 356 355 355 356 354 354 350 348 349 349 353 357 362 362 352 358 366 351 341 340 338 342 340 339 343 343 342 342 342 347 347 347 350 351 353 354
346 347 347 348 350 354 355 354 354 353 354 354 354 356 356 357 360 358 355 356 358 357 357 356 354 355 356 355 358 357 357 357 357 359 358 356 359 360 360 361 359 359 359 357 355 354 355 355 355 357 356 356 356 355 357 352 349 350 348 349 348 348 353 353 361 371 366 359 347 338 342 339 338 344 340 341 344 343 345 346 347 352 352 351 353
347 347 347 348 351 354 356 356 355 353 354 354 354 356 357 358 360 358 357 356 356 355 355 354 353 354 354 354 357 356 357 358 357 359 359 358 361 359 359 361 358 358 359 357 355 354 356 357 356 358 357 356 356 355 356 355 354 353 350 351 350 346 348 348 351 358 367 376 364 343 342 340 339 344 343 343 345 342 343 345 346 350 349 348 348
347 347 347 347 351 354 356 356 356 354 355 355 355 357 358 358 358 356 356 355 354 355 354 353 353 354 354 354 356 357 357 358 357 359 360 359 361 359 359 361 359 357 357 356 356 356 357 359 357 358 359 357 357 356 355 356 357 355 352 352 351 349 348 345 346 346 351 370 372 349 342 344 341 342 345 344 343 342 343 343 343 346 348 347 348
347 347 347 348 350 355 356 357 357 354 356 355 355 358 358 358 357 355 355 354 353 354 354 354 354 354 356 356 357 357 357 359 359 358 360 361 360 358 358 361 359 356 355 355 357 357 357 358 358 358 360 359 358 357 357 357 356 354 354 353 352 353 351 346 346 348 345 352 361 350 340 345 345 343 344 344 344 344 344 343 343 346 348 349 351
347 347 347 348 350 355 357 358 358 356 356 357 356 358 359 359 357 355 356 354 353 353 354 355 355 355 356 357 357 357 356 359 359 358 360 361 359 358 358 359 357 357 356 356 356 356 356 357 358 358 360 359 356 358 358 357 356 355 356 353 352 353 352 349 347 349 347 347 356 357 344 342 344 341 344 345 344 345 344 344 346 348 350 351 351
Wind_Speed
15 16 18 19 18 18 18 19 19 17 16 15 14 14 15 15 15 15 15 15 15 14 14 13 13 12 11 11 11 11 11 11 11 12 12 12 12 12 12 13 13 14 15 16 16 16 16 17 17 16 16 18 18 19 19 19 21 20 20 20 20 20 21 22 22 21 20 19 19 20 20 19 19 19 19 18 19 19 18 17 18 20 20 18 17
18 18 18 18 18 17 17 18 19 17 15 15 14 14 14 14 15 15 14 14 14 13 12 12 11 11 11 11 11 11 11 11 11 11 12 12 12 12 12 12 13 14 15 16 16 15 16 16 16 15 15 17 18 19 19 19 21 21 20 20 20 20 21 22 22 22 20 19 20 20 20 19 19 19 18 18 18 17 17 17 18 20 19 18 18
20 19 18 19 18 17 17 18 19 17 15 14 14 13 14 14 14 14 13 13 12 12 11 11 11 10 10 10 10 10 11 11 11 11 12 12 12 12 13 12 12 14 14 15 15 15 15 15 16 15 15 17 18 18 19 19 20 21 20 20 20 21 22 22 23 22 22 21 21 21 21 20 20 19 18 18 18 17 17 18 19 20 19 18 18
22 20 18 19 19 19 18 18 19 17 16 14 13 14 14 14 13 13 12 12 11 11 11 11 10 10 10 10 10 10 10 11 11 12 12 12 12 12 13 13 13 14 14 15 15 15 15 15 15 14 15 16 17 17 18 19 20 21 20 20 20 21 23 23 23 22 21 19 19 21 21 21 20 18 18 17 17 17 19 20 20 20 19 18 18
24 21 18 19 19 20 20 20 20 18 16 15 14 14 14 13 12 12 12 12 11 11 10 10 10 9 9 9 10 10 10 11 12 12 12 12 12 12 13 14 14 14 14 16 15 15 15 14 15 15 15 16 16 17 19 20 21 20 20 20 19 21 22 22 22 21 21 19 17 20 20 19 19 18 17 17 17 18 19 20 19 19 18 18 18
24 21 20 19 17 20 21 21 20 18 17 16 15 14 13 12 12 12 12 11 11 10 10 10 10 9 9 10 10 10 11 11 12 12 12 12 12 11 12 14 14 14 15 16 15 14 15 14 15 15 15 16 17 19 19 21 22 20 20 20 19 20 20 20 21 21 21 20 18 18 19 18 18 17 17 17 17 17 18 19 19 19 19 18 18
23 22 20 19 18 20 21 21 20 19 18 17 15 14 13 13 13 13 12 11 11 11 11 11 11 11 10 11 11 10 11 11 12 12 12 12 12 11 11 13 13 14 15 16 15 14 15 14 14 15 15 16 18 19 20 21 22 20 20 20 20 20 20 21 21 20 20 20 19 17 18 18 17 17 17 18 17 17 18 18 18 18 18 17 18
23 21 19 20 20 22 22 21 20 19 18 16 15 14 13 13 13 13 12 12 12 12 12 12 11 11 11 12 12 11 11 12 12 12 12 12 12 11 11 12 12 14 15 15 16 15 15 14 14 16 15 16 19 20 21 22 22 20 21 20 21 21 20 20 20 20 21 20 21 18 17 18 17 16 16 17 18 17 17 17 17 17 17 17 17
23 21 20 22 23 25 23 22 21 19 18 15 15 14 13 14 14 13 12 12 12 12 12 12 12 12 12 13 12 12 12 12 12 12 12 13 12 11 11 11 12 14 15 15 16 15 15 15 14 15 15 16 18 21 23 23 23 22 22 21 21 20 19 20 19 20 22 21 20 18 17 18 17 15 15 17 17 17 16 15 16 17 17 16 17
24 22 22 25 26 25 24 23 20 19 16 14 14 14 14 14 14 13 13 13 13 12 12 12 12 12 12 13 12 13 13 13 12 12 12 12 12 11 11 11 12 14 15 15 15 15 16 16 15 15 15 16 17 21 24 23 23 22 22 22 20 19 19 20 20 20 21 21 19 18 17 17 17 16 16 17 17 17 16 15 16 17 16 16 17
25 23 23 25 26 25 24 22 19 18 15 14 14 14 14 14 14 13 13 14 14 13 12 12 12 13 13 13 12 13 13 13 12 12 12 12 13 12 12 12 13 14 15 16 16 15 16 17 16 16 17 16 17 20 23 23 22 22 22 21 20 19 20 20 21 21 20 20 19 18 18 18 18 17 16 16 17 16 16 15 15 16 16 16 17
25 24 24 26 26 24 23 20 19 17 15 14 14 14 15 14 14 13 13 14 13 13 12 12 13 13 13 13 13 13 13 13 13 13 12 12 13 12 12 13 14 15 15 16 17 16 16 16 16 16 17 17 17 19 21 21 21 21 20 18 16 18 19 18 18 19 19 20 19 18 18 18 18 16 15 16 16 16 15 15 15 16 16 16 16
25 24 25 26 24 23 21 20 18 16 14 14 14 15 14 14 14 13 13 14 13 13 13 12 13 13 12 13 13 13 13 13 13 13 12 12 13 12 12 14 14 15 15 16 17 17 16 16 16 16 17 17 17 18 18 19 20 20 19 17 16 17 17 17 19 20 21 20 19 18 18 18 17 15 15 15 16 16 15 15 15 15 15 15 15
26 24 24 24 23 22 20 19 17 16 14 14 15 15 14 13 13 13 13 13 13 12 12 12 12 13 12 13 13 13 13 13 13 13 14 13 13 13 13 14 14 15 16 16 17 17 17 16 16 17 18 17 17 17 16 17 19 19 17 17 19 18 19 21 22 22 21 18 17 17 17 17 15 15 14 15 15 16 15 15 15 15 15 14 14
26 25 24 24 24 22 20 18 17 16 14 15 15 14 14 13 13 13 13 13 12 12 12 12 12 12 12 13 13 13 13 13 13 14 15 15 14 13 14 15 15 15 16 17 17 17 17 16 16 17 17 16 16 15 16 18 20 19 16 17 20 20 21 23 22 20 18 17 16 16 17 16 14 14 14 14 15 15 15 15 15 15 14 13 13
25 25 24 24 23 22 20 18 17 16 15 15 14 14 13 13 13 13 12 12 12 11 11 12 12 12 12 13 13 13 14 13 13 15 16 15 14 14 14 15 16 16 16 17 18 17 17 17 16 17 16 16 15 16 17 17 18 19 17 17 19 20 22 22 20 18 17 16 16 15 16 15 13 13 13 14 14 15 15 15 14 14 13 12 12
24 25 25 24 23 21 20 18 17 16 15 14 14 13 13 13 13 13 12 12 12 12 11 11 12 12 12 13 14 14 14 14 14 14 15 16 15 14 15 15 16 16 16 17 18 17 17 17 17 18 16 16 16 16 16 16 18 20 19 16 15 16 18 18 18 16 15 16 15 14 14 14 13 12 12 13 13 14 14 14 14 13 12 12 11
23 24 24 24 21 20 19 19 17 15 14 14 14 13 12 13 13 13 12 12 12 12 11 11 12 12 12 14 14 14 14 13 14 14 14 16 15 14 15 15 15 16 16 17 17 17 17 18 18 19 17 16 17 17 17 18 20 20 20 18 15 13 15 15 15 15 15 14 14 14 13 13 12 12 12 12 12 13 13 13 12 12 11 11 11
23 23 23 22 20 19 19 19 17 15 14 14 13 13 12 12 13 13 12 11 13 12 11 11 12 13 13 14 14 14 14 13 13 14 14 15 15 14 14 15 15 15 15 16 16 16 16 18 19 19 18 17 18 17 18 20 21 21 20 20 15 13 15 15 14 14 13 13 14 14 13 12 12 11 11 12 11 12 12 11 11 11 10 10 10
22 22 21 21 20 19 19 18 18 16 15 14 13 13 12 13 13 13 12 12 13 13 12 11 12 13 13 13 13 13 13 13 13 13 14 15 15 14 14 15 16 15 15 15 16 16 17 18 20 19 18 18 18 19 20 21 21 20 19 16 13 13 15 16 14 12 12 12 13 13 12 11 11 11 11 11 11 11 10 10 10 9 9 9 10
21 21 20 20 19 19 19 18 18 17 16 15 13 13 12 12 13 13 12 12 12 13 12 12 12 13 13 12 11 11 12 12 12 12 14 15 15 14 14 15 15 14 15 16 18 19 20 20 20 20 18 18 19 20 21 21 19 17 15 13 11 12 14 15 14 11 11 12 12 12 11 11 11 11 11 11 11 10 9 9 8 8 8 8 9
20 21 20 19 19 19 19 18 19 19 18 16 14 14 13 12 13 13 12 12 12 12 11 11 12 12 12 12 10 10 10 11 11 12 13 14 15 14 15 15 14 15 17 18 19 20 20 20 20 19 19 19 18 19 19 18 16 14 14 12 10 12 14 14 13 11 11 11 12 11 10 10 11 11 11 10 10 9 9 9 8 8 8 8 8
20 19 19 18 19 20 19 18 19 20 18 17 15 15 14 13 13 11 11 13 12 11 11 11 11 12 11 10 11 10 9 10 11 12 12 14 15 15 16 16 15 17 19 19 20 20 19 20 21 20 19 19 18 18 18 16 15 13 13 11 9 12 14 12 12 11 11 11 12 11 10 11 11 10 10 10 9 8 8 8 8 8 7 7 6
22 22 21 19 21 22 20 19 20 20 18 17 16 15 14 14 12 11 10 11 12 12 11 11 10 10 10 11 11 11 10 10 12 12 12 13 14 15 16 17 18 18 19 19 19 18 18 19 20 19 18 16 15 14 14 13 13 14 13 11 10 12 13 11 11 11 11 11 11 11 10 11 10 10 9 9 8 7 7 7 8 8 7 6 6
22 23 22 20 22 21 21 20 19 19 17 17 17 15 15 14 14 12 11 12 13 13 12 11 10 9 10 12 12 11 11 12 13 12 13 14 14 14 15 17 17 15 15 16 16 16 16 16 16 16 15 15 12 9 9 9 10 12 12 12 12 13 13 12 11 10 11 11 11 11 11 10 10 10 9 8 7 7 7 7 7 7 6 5 5
18 20 20 20 20 19 20 20 19 18 16 17 17 16 15 15 15 13 13 14 13 13 11 9 9 10 10 11 13 11 12 13 13 14 15 15 13 11 12 13 13 13 13 13 14 13 11 11 11 11 11 11 11 9 9 9 9 10 11 12 13 13 12 11 10 9 10 11 11 10 11 10 10 10 8 8 7 6 6 7 6 5 5 4 4
17 17 18 19 19 18 19 19 19 18 16 16 16 16 15 14 14 13 15 15 13 13 12 11 9 9 11 12 13 12 12 13 13 14 14 12 10 10 11 11 12 13 13 13 12 10 8 8 8 6 6 7 8 9 10 10 11 11 10 10 12 12 11 11 10 9 9 10 10 10 10 10 10 9 8 7 6 6 6 6 5 4 4 3 3
17 18 18 18 19 18 18 19 18 18 17 16 16 16 14 13 13 12 14 14 12 12 13 13 9 8 10 11 12 10 11 12 13 13 12 11 10 10 10 10 11 11 11 12 10 9 8 7 4 4 6 8 9 9 9 10 11 10 10 10 11 11 11 11 10 8 8 10 10 9 10 9 9 9 8 7 6 6 6 5 4 4 3 3 2
18 18 18 17 18 18 18 19 18 18 17 16 15 15 14 15 13 12 14 12 12 13 13 12 9 10 11 12 13 10 10 11 11 12 11 10 10 11 11 11 12 11 11 11 9 9 9 7 4 4 8 10 10 9 10 10 10 10 10 10 10 10 10 10 10 9 8 9 10 9 8 8 8 8 8 7 6 5 5 5 4 4 3 3 2
17 18 18 17 18 18 18 18 18 18 18 15 14 13 13 14 11 10 12 11 13 14 13 10 9 8 8 12 13 10 12 13 12 13 11 10 12 11 11 11 12 11 12 10 9 10 10 8 8 8 9 10 9 9 9 10 10 10 10 10 10 10 10 10 10 10 8 7 8 9 8 7 7 7 7 7 6 6 5 5 4 4 3 2 2
17 17 18 18 18 18 17 18 17 18 20 17 16 16 13 13 12 11 10 9 12 14 12 11 12 9 9 12 11 11 14 15 14 14 13 13 13 12 12 11 10 11 12 11 10 9 9 8 9 8 8 9 8 9 9 9 10 10 10 10 10 10 10 10 10 11 10 7 7 9 8 7 7 6 7 6 6 6 5 4 4 4 3 2 2
18 17 18 19 19 19 18 18 17 17 19 18 19 19 16 16 16 14 12 12 14 17 15 15 16 16 16 14 12 16 19 18 13 12 13 13 13 14 13 11 10 11 13 12 10 8 7 8 9 8 7 7 7 8 9 9 10 10 9 9 9 9 9 10 10 11 11 6 4 6 7 7 7 6 6 5 5 5 4 4 4 3 3 3 3
18 18 18 19 19 19 18 18 17 16 16 16 17 18 16 16 16 15 16 15 15 18 17 16 15 16 18 15 14 17 22 23 17 13 13 12 11 13 12 8 8 11 13 12 9 7 5 7 8 7 7 7 7 7 7 9 10 9 9 8 8 8 8 8 9 10 10 7 5 4 5 7 6 5 5 5 4 4 3 3 3 3 2 3 3
18 18 18 19 19 18 18 17 17 16 15 16 16 16 15 14 14 14 15 15 14 15 15 15 14 14 15 14 14 14 18 22 19 19 18 15 13 13 12 10 6 10 11 9 7 8 6 6 7 7 7 7 7 8 8 8 10 9 9 8 7 7 7 7 8 9 10 9 7 5 4 4 4 5 4 4 4 3 3 3 2 2 2 2 2
18 18 18 19 18 17 17 17 17 16 15 16 15 16 15 14 14 14 13 14 14 14 13 14 14 13 13 13 13 12 13 14 15 19 20 19 19 16 15 14 10 9 8 7 6 7 7 5 6 7 7 7 7 8 8 8 9 9 9 8 8 7 6 7 7 8 8 8 9 8 6 3 2 3 4 4 4 3 3 2 2 2 1 1 1
18 18 18 19 18 16 16 17 17 16 16 15 15 15 15 14 14 13 13 13 14 14 14 14 14 13 13 12 12 12 12 11 11 15 17 17 18 17 14 13 13 10 8 8 6 6 5 4 6 6 7 9 8 9 8 8 9 9 8 8 7 7 7 6 6 7 7 8 9 9 8 5 4 3 3 4 4 5 5 4 3 2 2 1 0
18 18 18 18 18 16 16 17 17 16 16 15 15 15 14 14 14 13 12 12 13 14 14 14 14 14 13 13 12 12 12 11 10 13 15 14 15 16 13 12 13 10 8 8 6 6 6 5 5 5 5 7 7 9 9 8 9 9 8 8 6 6 6 5 6 6 6 6 7 10 10 7 7 6 7 6 3 4 5 5 5 5 4 2 2
19 19 18 18 18 17 16 18 17 16 16 16 16 15 15 14 14 13 11 12 12 13 14 14 14 13 13 13 13 12 12 12 10 10 12 12 14 14 11 10 11 10 9 8 6 7 7 6 5 4 4 3 4 8 9 7 8 8 8 7 5 6 5 5 6 4 5 6 5 10 10 7 6 5 9 8 2 2 4 4 3 5 5 4 3
19 20 18 17 18 17 16 18 17 16 15 16 16 15 15 14 13 13 11 11 12 12 13 14 14 13 13 13 12 12 12 12 10 9 10 12 12 12 10 9 8 8 8 8 7 7 7 6 5 3 4 5 5 7 7 6 7 7 8 7 5 5 5 5 6 4 6 6 5 8 9 7 6 5 7 8 3 2 2 3 1 1 4 6 6
19 20 19 17 18 17 17 18 17 17 16 16 16 14 14 13 13 13 11 11 12 12 12 13 14 13 13 13 12 12 12 12 10 9 11 11 11 10 10 10 7 7 8 9 8 7 7 6 5 4 4 4 4 6 5 5 8 7 7 8 5 4 4 5 7 6 6 6 4 6 8 9 8 6 7 9 7 4 2 2 1 2 2 4 5
20 21 20 18 18 17 18 19 17 17 16 16 15 14 14 14 14 13 12 12 12 12 11 12 13 12 13 12 12 12 12 12 10 9 10 11 10 9 9 10 9 7 7 8 8 7 7 6 6 5 4 3 3 5 6 7 9 6 4 7 6 5 4 5 7 7 8 7 5 6 9 10 9 8 7 8 8 5 1 2 1 3 3 4 5
20 21 20 19 19 18 19 19 18 18 16 15 15 14 14 13 13 13 12 12 12 11 11 13 14 13 13 12 11 12 11 12 11 10 10 9 9 9 8 9 9 8 8 7 7 7 6 6 5 5 4 3 2 5 7 4 6 7 5 6 5 4 2 4 6 7 9 8 7 8 10 11 11 9 8 8 8 6 3 3 4 5 3 4 6
20 21 20 19 19 19 20 19 19 18 16 16 15 14 14 13 12 12 12 12 11 11 11 13 14 13 13 12 11 12 11 11 10 10 10 9 9 9 9 8 9 9 8 8 7 6 6 6 5 5 5 3 3 5 4 1 4 8 5 3 2 2 1 7 9 7 8 8 9 9 11 11 11 9 7 8 9 8 6 5 5 6 4 3 4
21 21 21 20 19 20 21 20 19 19 17 17 16 14 14 12 11 11 11 11 11 11 12 13 13 12 12 11 11 12 11 10 10 10 10 8 8 9 9 9 8 8 8 8 7 6 6 5 6 5 3 3 4 5 4 4 7 6 1 1 2 0 1 5 8 4 1 5 8 7 10 11 8 8 9 9 9 8 7 5 4 4 3 3 3
21 21 22 21 19 20 21 20 19 19 18 18 17 15 15 12 10 11 12 12 11 13 13 12 12 12 12 12 11 12 12 11 10 10 10 9 8 8 9 9 8 7 7 7 5 6 6 5 6 5 3 4 4 5 5 5 5 4 5 3 2 1 1 2 2 1 6 3 6 6 9 13 8 6 7 9 7 5 9 6 2 2 2 2 2
21 22 22 21 19 20 21 20 19 18 18 19 18 16 16 14 12 13 15 13 12 13 13 13 14 13 12 12 12 12 11 11 11 10 10 10 8 8 9 8 8 7 6 6 5 5 6 6 5 5 5 5 4 4 4 4 5 5 6 5 4 2 0 4 3 0 7 5 5 7 9 10 7 6 5 7 6 6 10 8 3 3 2 1 1
22 22 22 22 21 21 22 20 20 19 18 20 19 17 17 15 13 14 15 14 12 13 13 13 15 13 12 13 13 12 11 11 11 10 9 10 8 8 8 7 7 6 5 6 5 5 6 6 5 5 7 5 4 3 4 5 4 2 2 4 4 3 1 1 1 1 2 3 3 5 11 9 9 11 10 10 9 7 8 6 4 6 4 1 2
23 23 23 23 23 24 24 21 21 20 18 20 20 18 18 17 14 14 13 13 12 13 12 13 13 13 14 15 13 12 11 11 12 11 10 10 9 8 8 7 7 7 5 4 4 5 7 7 4 4 5 4 4 2 3 5 3 1 1 1 2 2 1 1 1 2 1 1 4 1 8 10 10 9 9 12 12 7 6 5 5 7 5 1 1
24 23 23 23 24 25 25 22 22 20 19 21 21 18 19 18 16 14 13 12 11 12 12 11 12 12 13 14 14 13 12 11 12 12 11 10 9 9 8 6 6 7 5 5 5 5 6 6 5 4 4 4 4 2 2 3 3 1 1 1 2 1 1 2 2 2 2 1 3 2 3 4 4 2 1 6 10 9 6 4 5 7 6 2 1
24 24 23 24 24 25 26 24 22 21 21 22 22 19 18 18 17 16 14 13 12 12 12 11 12 12 13 14 14 15 13 11 12 12 11 11 9 9 9 7 7 7 6 7 8 5 5 6 5 5 4 4 4 3 1 1 1 0 0 2 1 3 3 0 2 2 2 2 4 2 1 3 4 2 3 3 5 7 6 3 5 8 5 3 2
24 24 23 24 24 24 26 25 23 23 22 23 23 20 19 19 18 17 15 15 13 13 13 12 12 12 13 13 14 15 13 12 13 12 12 11 10 9 9 9 8 7 6 7 7 5 6 6 5 5 4 4 4 4 3 2 1 1 0 3 3 2 2 2 2 4 4 2 4 4 2 1 6 6 1 1 2 2 3 3 4 5 3 3 2
Wind_Direction
137 135 131 132 130 130 134 133 128 126 123 118 113 106 103 102 105 104 102 99 97 96 95 95 94 94 94 94 94 91 89 88 87 86 85 84 84 87 88 92 95 96 96 97 100 101 103 102 100 101 99 97 100 100 99 102 104 103 103 102 101 100 101 100 99 97 92 88 86 86 84 82 84 86 88 85 80 81 82 81 82 83 82 83 83
137 134 133 135 132 131 135 131 126 125 123 120 114 108 105 106 105 101 97 95 94 94 95 96 97 98 97 96 95 92 91 89 87 84 83 82 83 87 89 92 97 98 95 95 99 100 102 101 97 99 96 95 98 99 100 101 103 104 104 104 103 102 102 103 101 97 92 89 88 87 87 86 86 88 91 90 87 86 85 84 86 85 83 85 84
131 130 134 136 134 133 133 129 127 128 127 122 115 110 108 106 101 97 94 93 94 96 97 100 101 100 97 94 93 92 90 88 87 84 82 82 83 88 92 92 96 99 97 96 100 100 101 101 99 99 96 97 98 99 100 100 103 105 104 105 106 107 106 104 102 97 91 87 87 86 89 92 91 91 93 92 90 88 87 87 88 88 88 87 84
132 132 134 136 136 135 133 133 133 132 129 123 117 113 109 103 99 97 97 98 99 101 101 99 99 98 94 93 90 86 85 85 86 84 83 82 86 92 94 93 96 99 102 100 101 101 102 103 102 100 96 96 99 99 99 100 103 106 106 106 108 109 107 107 105 99 93 89 89 89 89 91 92 91 91 91 90 89 89 90 89 89 89 87 85
133 132 132 134 136 138 136 135 133 131 128 124 119 113 107 104 102 102 103 104 105 105 101 97 96 96 95 94 90 86 86 86 86 86 86 86 88 94 97 96 97 98 101 103 102 104 105 105 105 102 97 97 99 99 99 101 104 106 107 106 107 108 108 110 107 101 99 97 96 93 91 90 90 90 89 88 89 90 91 91 91 91 88 86 84
131 130 131 131 133 137 135 133 130 128 126 123 117 112 111 110 109 108 108 108 106 103 99 98 97 96 95 94 92 92 91 89 89 87 89 92 91 92 98 98 100 98 98 104 105 106 108 105 105 103 99 100 100 100 102 104 105 107 105 105 106 109 111 111 107 102 101 102 99 94 92 89 87 88 87 85 86 88 90 92 92 91 88 86 84
129 129 130 131 133 135 132 129 128 127 124 120 117 117 118 116 113 109 107 106 102 99 97 98 97 94 92 94 94 93 92 89 90 91 93 95 95 93 96 99 103 101 98 104 107 106 107 106 105 105 104 103 100 101 104 104 105 106 105 105 107 111 114 110 106 101 99 102 102 96 94 91 86 87 86 83 84 86 89 91 91 90 89 87 85
130 129 130 133 135 134 131 128 129 129 123 120 121 122 122 117 111 107 107 104 99 97 96 96 95 93 91 93 93 91 90 88 90 93 95 94 94 95 97 100 101 100 101 104 105 104 106 107 107 108 107 103 102 102 103 104 105 103 101 104 106 109 113 111 103 98 99 100 100 99 96 93 89 87 86 84 83 85 88 90 91 92 91 89 87
130 128 130 133 133 132 130 131 132 128 122 123 125 123 120 114 110 108 106 103 97 95 95 96 96 94 91 91 92 91 89 88 88 90 94 94 93 93 96 101 101 101 103 104 104 107 109 108 108 109 107 102 102 104 104 105 104 100 98 102 107 105 107 108 101 98 101 98 97 99 97 94 90 86 85 85 83 84 86 88 91 92 91 91 89
128 127 130 132 131 131 131 132 130 124 124 128 124 118 116 113 111 107 103 100 97 97 97 98 98 95 94 94 94 93 91 90 90 90 92 93 94 95 97 100 102 103 103 104 105 109 111 111 110 109 105 103 104 106 107 105 103 102 99 101 104 100 101 104 101 99 99 95 97 101 100 96 92 87 85 85 85 85 86 88 89 90 91 92 90
127 127 129 131 130 130 130 128 125 124 128 127 119 115 113 111 109 105 103 102 99 100 100 102 103 100 98 98 99 97 95 94 93 93 92 93 95 96 99 100 102 105 106 108 109 110 112 112 112 111 107 106 105 105 107 106 103 103 101 100 99 95 98 101 100 99 96 96 99 100 98 96 93 90 88 87 87 86 87 88 88 89 91 91 89
127 128 130 131 130 129 127 124 127 129 129 122 114 114 113 111 108 105 104 103 103 103 104 107 107 104 103 101 100 99 98 97 96 95 94 95 97 98 100 100 101 103 106 108 109 109 109 110 111 113 111 107 103 103 105 102 100 101 95 93 99 99 100 102 101 100 100 102 103 100 98 96 94 93 91 88 87 87 88 89 89 89 89 90 88
129 129 131 131 129 128 126 126 130 129 125 119 116 116 113 111 107 105 104 104 106 107 109 108 107 106 104 103 102 100 100 99 99 97 96 96 97 99 101 101 101 102 104 105 107 108 107 108 111 114 110 105 103 102 101 98 100 98 86 84 103 109 106 106 103 99 100 103 103 103 101 98 98 95 92 89 88 87 87 88 89 90 89 89 88
131 131 132 131 130 129 127 128 129 126 123 120 119 117 114 113 109 107 106 106 109 111 112 110 110 108 106 105 102 102 100 99 101 100 98 98 98 98 99 101 101 103 106 105 105 107 109 109 110 111 108 104 103 102 101 102 103 95 84 91 106 110 109 107 101 97 99 102 104 105 102 101 101 99 95 91 88 87 86 87 88 90 90 89 88
133 133 133 132 132 131 130 129 128 125 123 122 120 117 117 116 112 110 108 110 111 112 114 114 112 109 109 107 105 105 102 99 100 101 99 99 98 98 99 101 102 104 107 106 105 107 111 112 110 110 109 105 103 106 107 108 105 96 90 99 104 104 106 104 99 97 100 105 106 106 104 103 102 100 98 94 90 88 88 88 88 90 90 90 89
133 134 133 134 134 134 133 131 130 126 124 122 119 117 118 118 116 113 112 113 113 116 116 115 113 111 112 111 110 107 101 99 100 102 103 101 99 100 102 103 105 107 108 107 107 109 112 115 116 117 114 112 110 111 112 109 107 101 97 98 98 100 103 102 99 101 107 107 106 107 106 104 102 99 98 95 92 90 90 90 90 91 91 91 90
134 134 134 135 136 136 134 133 132 127 125 123 120 120 121 123 121 118 118 118 118 120 118 117 116 114 114 114 112 106 99 98 98 100 103 102 101 101 103 104 107 108 109 109 110 113 116 119 123 122 117 117 116 114 113 111 112 108 104 100 92 91 96 100 101 106 111 108 106 108 107 105 102 99 98 96 95 93 92 91 92 92 93 93 92
135 135 134 136 137 136 136 136 132 127 128 127 125 127 127 126 124 122 121 122 123 121 120 120 120 117 115 114 112 107 103 98 100 102 102 103 103 103 104 105 108 109 110 111 113 114 118 123 126 124 119 118 118 116 112 113 114 109 107 104 94 91 95 102 109 112 112 111 113 113 110 108 103 99 98 98 97 97 95 94 95 95 95 94 92
136 135 135 136 136 135 136 135 133 131 131 131 133 137 134 127 126 126 125 126 126 124 123 122 122 119 113 114 113 109 107 103 102 103 101 103 104 104 107 110 110 111 112 113 114 114 118 121 122 121 120 120 117 114 112 114 112 108 107 105 103 110 111 112 114 113 111 116 121 118 114 111 106 102 99 99 100 100 98 97 98 98 98 95 91
136 137 136 136 136 136 137 137 137 136 132 133 136 137 134 129 127 127 129 129 126 126 126 126 125 121 117 117 115 112 110 106 101 102 104 105 107 108 111 113 112 113 115 115 114 116 119 120 120 120 120 119 116 113 113 114 112 111 112 109 111 119 119 118 115 116 118 121 124 119 116 112 107 104 100 99 100 102 102 102 103 103 99 94 89
134 134 135 136 138 138 139 139 139 138 135 134 135 133 133 132 129 130 131 130 129 130 128 128 127 125 125 121 118 117 113 111 106 105 106 106 107 109 109 111 111 113 114 115 115 118 122 122 122 121 120 119 116 114 114 114 113 112 111 112 116 116 117 115 113 120 125 126 124 119 117 112 107 105 101 99 101 103 106 107 107 106 99 92 88
129 133 137 140 140 141 140 140 140 139 136 135 136 134 133 131 130 134 135 133 134 133 131 131 132 132 130 126 125 122 117 118 116 112 111 110 109 108 107 108 111 112 111 112 114 117 120 121 121 121 120 118 117 117 115 113 110 110 109 112 114 112 115 116 119 125 125 128 124 119 118 115 109 104 102 102 105 108 112 115 113 106 97 90 89
133 138 141 143 143 143 142 143 143 141 139 138 138 136 137 136 133 137 135 135 138 138 138 138 140 136 132 136 132 126 126 124 121 121 118 115 112 108 106 107 109 110 111 112 114 117 118 119 119 120 118 116 117 117 116 112 108 108 108 111 109 109 119 129 133 130 128 130 124 121 121 115 110 106 107 110 111 117 120 119 113 102 94 94 95
143 146 145 145 144 144 144 145 146 144 142 140 139 139 142 141 141 143 140 143 145 144 146 147 150 143 142 145 133 127 134 133 132 131 124 118 115 113 111 111 112 114 116 118 119 120 122 124 124 124 122 120 123 119 117 116 113 109 108 119 123 118 124 129 129 130 133 133 125 124 122 117 114 111 114 117 120 125 124 118 109 99 95 98 99
144 146 148 146 145 145 144 147 149 145 142 142 143 144 147 147 149 149 149 154 148 145 151 157 161 159 150 140 135 137 138 140 138 129 121 120 119 116 115 116 117 120 123 124 126 127 130 133 133 134 131 133 142 140 129 126 124 120 124 138 139 132 130 128 130 136 139 133 127 127 125 124 122 121 123 123 125 127 122 112 104 99 100 103 101
141 142 145 147 147 146 143 146 148 145 144 146 147 150 152 150 152 151 152 156 151 150 156 161 168 169 157 139 143 145 136 139 137 127 124 122 123 125 127 128 127 128 128 128 131 134 137 146 149 146 144 151 162 162 148 139 137 137 140 143 137 133 131 131 135 137 137 134 132 133 131 132 131 132 134 133 129 121 111 104 103 104 105 104 102
142 141 142 146 148 147 143 144 148 146 144 146 148 153 154 148 150 151 152 155 155 157 156 159 167 167 156 144 144 144 140 142 136 133 131 130 132 132 132 136 136 134 132 133 138 142 148 164 178 184 187 181 167 154 146 139 135 135 137 136 131 130 130 131 134 137 138 134 135 140 142 143 142 141 141 141 134 118 109 107 114 117 117 118 109
145 144 145 149 149 148 144 144 149 146 143 147 147 151 154 148 147 149 151 153 155 156 152 152 153 160 167 157 147 151 158 151 143 145 145 145 143 131 126 127 132 135 138 141 143 146 152 157 181 209 183 159 145 136 133 132 132 132 130 130 128 129 131 132 138 140 133 132 137 144 148 150 149 148 146 144 135 124 124 130 137 134 130 132 121
147 147 149 150 148 147 145 144 148 147 145 148 145 146 153 150 149 153 154 154 156 154 150 149 147 155 172 167 148 149 163 155 146 148 145 138 131 127 126 125 130 129 132 137 133 135 138 130 109 132 147 141 137 136 135 132 130 131 131 130 129 131 133 135 143 141 127 128 138 143 148 151 151 151 149 143 137 140 147 149 147 142 140 132 122
150 150 151 150 147 148 148 146 148 148 145 146 148 149 150 147 148 148 146 150 153 150 143 150 163 149 144 155 150 147 156 152 142 139 133 126 121 121 119 118 120 116 116 118 118 120 121 116 104 118 136 132 133 141 140 136 131 132 135 133 132 135 137 139 143 141 135 130 135 142 147 149 151 152 149 146 146 155 158 153 152 151 154 150 139
155 154 150 150 150 150 149 148 148 148 146 147 151 152 148 147 147 136 134 143 144 142 138 149 164 150 124 141 152 155 153 143 137 139 138 138 133 124 122 124 122 117 112 112 113 108 106 108 109 123 132 126 138 149 142 137 135 136 140 138 138 142 146 148 142 140 147 143 129 135 142 144 143 143 144 147 152 161 164 161 167 171 176 181 184
158 155 149 151 153 151 150 149 150 149 147 147 149 149 149 153 153 145 147 154 149 153 158 155 157 154 149 148 152 161 158 144 135 135 131 135 135 121 123 139 144 136 124 117 114 105 104 106 111 128 133 132 147 149 144 141 138 138 140 139 143 147 152 155 142 136 148 155 135 130 134 137 136 139 145 150 154 161 169 176 182 185 195 206 215
158 152 151 154 153 151 149 149 151 151 147 145 146 146 146 150 151 148 151 155 155 156 156 152 148 147 149 146 143 151 151 142 137 137 125 121 126 112 115 139 132 121 114 110 119 125 122 107 115 130 134 148 155 145 145 141 136 136 134 133 139 141 145 147 138 136 146 160 172 151 129 126 128 137 144 152 161 167 174 187 199 203 213 225 247
155 151 157 156 151 151 150 150 151 150 146 143 144 143 143 145 145 145 149 151 149 146 142 142 141 137 135 130 129 133 137 135 136 147 143 132 133 122 131 152 123 101 102 104 121 129 122 108 120 134 140 153 155 153 153 139 135 135 132 132 132 133 137 135 133 138 140 148 164 164 141 130 124 131 130 131 144 160 171 177 194 209 226 235 255
152 154 160 153 150 153 151 151 151 150 146 144 145 143 143 144 142 147 153 151 145 143 141 142 140 135 131 126 128 129 132 130 128 144 148 144 145 140 143 153 142 127 126 131 126 116 110 103 120 132 144 145 138 149 148 129 129 129 127 130 129 129 127 124 129 136 133 140 154 161 165 173 160 138 135 123 108 114 139 147 157 174 195 225 252
152 157 159 151 151 156 152 151 152 151 146 145 146 143 142 142 143 148 151 150 147 146 144 143 142 138 134 131 131 129 130 126 121 131 137 138 140 140 142 144 143 145 146 142 134 125 119 113 122 124 142 150 143 143 138 128 127 125 125 127 128 129 127 128 134 135 136 144 151 154 163 182 198 208 189 151 107 87 90 100 103 101 118 100 55
154 157 155 151 152 155 154 152 153 152 147 145 145 143 142 141 144 148 150 150 147 145 142 141 142 140 138 136 133 132 130 127 118 120 126 130 131 136 141 137 141 146 140 133 134 140 137 131 123 105 130 155 150 137 135 136 133 131 133 127 123 124 122 125 124 119 127 145 160 155 154 170 185 209 215 190 129 84 77 81 85 70 71 75 55
156 156 156 154 153 154 157 154 153 152 148 146 146 145 144 144 146 148 151 149 144 143 143 144 142 138 140 140 136 134 135 131 118 111 119 125 127 133 134 131 139 141 132 132 138 141 138 132 123 102 105 118 120 129 132 137 136 133 127 117 116 117 112 122 124 128 146 150 162 156 156 171 169 188 201 191 172 98 82 63 71 64 54 53 51
157 154 157 154 150 154 155 151 152 153 150 149 148 147 147 151 150 148 153 148 144 146 144 145 142 139 141 141 140 139 139 137 128 120 122 122 123 130 132 131 139 140 135 137 140 140 134 131 129 112 95 82 88 107 110 118 120 119 120 117 121 128 133 156 155 175 175 151 145 155 159 167 153 144 179 178 159 119 80 34 8 69 46 33 34
157 153 156 155 152 156 152 152 156 154 152 153 152 152 154 158 153 151 157 151 147 149 145 142 140 140 144 142 143 144 143 143 138 133 133 130 128 134 135 133 135 136 134 133 136 138 133 136 140 122 104 102 102 99 93 98 99 102 121 123 131 147 153 185 181 172 159 146 169 183 158 153 156 141 153 166 155 140 87 51 324 292 341 1 7
157 154 157 157 158 159 154 156 161 156 157 160 158 160 161 163 159 158 161 154 151 151 147 144 141 142 148 148 145 147 147 144 145 143 136 130 130 135 136 136 137 130 120 122 132 136 134 140 139 125 119 128 124 107 101 109 116 123 146 138 149 166 163 205 201 170 155 151 173 188 155 144 155 146 140 154 160 165 138 86 182 259 301 331 331
157 157 161 161 163 162 157 161 163 161 164 165 163 165 165 166 164 164 162 155 154 156 151 149 147 147 151 152 148 149 149 147 152 151 141 132 132 138 137 135 136 131 124 125 131 135 136 141 138 133 130 115 86 105 112 134 146 152 167 155 160 168 169 240 223 175 167 165 162 175 164 148 146 148 144 148 167 185 160 116 164 212 253 305 309
162 163 165 164 165 163 161 164 165 166 168 168 168 167 167 169 167 165 161 156 157 156 150 149 149 151 154 155 156 154 150 151 157 153 147 143 137 136 137 136 136 138 138 137 137 136 135 139 140 140 138 123 105 113 120 2 107 128 147 156 153 155 225 262 242 191 168 171 166 165 159 143 139 156 169 162 169 176 158 153 186 213 236 241 277
167 168 168 168 167 164 165 168 167 168 170 170 170 168 168 169 164 162 156 152 156 151 146 149 151 154 157 158 162 159 151 154 158 153 149 146 141 139 138 140 140 138 135 133 137 137 136 136 129 124 116 113 117 118 98 57 89 110 106 178 156 124 187 247 240 204 155 182 167 150 142 136 140 175 188 170 162 173 178 199 217 209 217 211 233
170 171 172 173 170 165 168 171 170 170 172 171 170 169 169 165 158 159 157 153 155 153 150 152 155 160 162 162 165 160 157 160 159 156 151 150 154 145 139 143 142 138 134 135 141 136 133 127 118 119 100 72 75 97 88 72 104 85 26 56 93 357 229 295 269 222 318 292 145 135 137 136 147 185 178 155 148 186 195 203 230 187 206 222 221
174 175 175 175 172 167 169 173 173 172 173 172 171 169 169 167 160 159 160 158 159 163 162 160 163 167 166 164 165 165 166 162 159 162 158 155 155 140 137 142 142 143 138 133 133 126 127 125 118 115 107 82 63 86 79 78 115 92 57 69 71 84 213 338 355 304 311 331 111 150 151 134 152 176 166 160 157 186 194 201 227 198 214 268 236
175 176 176 177 172 167 170 173 175 176 174 174 173 170 170 173 168 161 162 164 164 171 173 166 166 170 168 162 162 170 170 160 159 164 158 154 153 146 143 141 140 142 130 123 129 128 121 120 125 117 109 105 99 80 47 66 101 109 110 106 81 88 140 323 351 356 303 341 21 174 164 151 169 173 176 182 169 169 186 198 214 191 187 247 221
176 177 178 177 171 168 172 173 175 178 177 176 175 173 173 175 174 167 166 171 170 169 172 167 164 165 167 164 161 169 170 163 163 161 153 154 157 153 147 144 144 139 132 127 131 137 123 113 122 122 113 124 124 88 43 60 48 10 155 139 72 116 170 112 52 337 247 285 336 233 163 165 174 172 177 175 165 168 178 177 196 187 171 170 220
176 178 179 175 170 168 173 174 175 179 179 177 178 177 176 176 177 175 172 177 172 166 168 168 165 162 163 163 162 166 170 167 167 162 156 158 160 156 150 149 139 132 146 136 119 134 129 116 126 120 110 127 127 115 89 50 20 34 165 311 27 45 241 122 131 263 283 339 342 13 97 115 114 70 20 148 151 159 160 166 194 185 178 221 244
176 179 179 176 172 169 173 176 176 179 180 179 180 180 179 178 179 178 176 179 173 169 171 167 164 161 158 162 163 166 170 167 166 166 162 162 166 160 153 153 145 143 160 140 127 141 132 124 138 133 135 154 145 144 168 348 344 352 131 140 69 344 307 257 161 263 329 330 310 324 110 113 122 132 357 59 135 150 152 170 182 174 177 199 167
176 179 180 176 174 172 174 177 178 180 181 180 181 182 181 182 184 182 178 179 175 172 174 167 165 165 162 166 167 166 171 171 168 170 169 167 169 163 156 159 159 158 156 139 137 141 134 145 157 145 153 174 161 160 196 220 218 268 98 148 182 238 278 310 330 342 352 340 328 326 287 136 144 162 119 113 211 210 203 210 165 150 119 127 151